Haugesund

Airport
ICAO code: 
ENHD
Summary
ICAO Region: 
EUR
Territory: 
Location: 
Karmøy,
Elevation: 
86 ft
Coordinates: 
Aerial View: 
59° 20' 43.076" N, 5° 12' 30.097" E
Metar
Observation
ENHD 251350Z 19015G25KT 9999 FEW014CB SCT020 BKN080 13/09 Q1002
Station
Haugesund / Karmoy
Date/Time
2022-05-25 13:50:00
Wind direction
190°
Wind speed
15 kts
Lowest cloud amount
few clouds
Temperature
13°C
Dew point
9°C
Humidity
76%
QNH
1002 hPa
Weather condition
n/a

Description

Haugesund Airport, Karmøy (IATA: HAU) is the airport serving the city of Haugesund in Norway. It is located on the west side of the island and municipality of Karmøy, southwest of Haugesund.

Climatology

Temperate Marine climate/Oceanic climate (Köppen climate classification Cfb). Moderately cool summer and comparatively warm winter with a temperature range of only 14°C. Prevailing south-westerly winds from the Atlantic Ocean.

Runways

Designator Length Width Surface Rops
14/32 2120 45 ASP Yes/Yes
Airport map: 
Aerial View: 

SKYbrary Partners:

Safety knowledge contributed by: